ギブス彗星

229P/Gibbs (2009)

English version
Home page
Updated on March 17, 2010

---------------------------------------------------------------------

・ プロフィール

符号 229P/2009 S1
発見日 2009年9月20日
発見光度 18.6等
発見者 A. R. Gibbs (Catalina)

・ 写真集

・ 軌道要素

Epoch 2009 July 28.0 TT = JDT 2455040.5
T 2009 Aug. 4.17415 TT                                  MPC
q   2.4402029            (2000.0)            P               Q
n   0.12683753     Peri.  224.00341     +0.90071263     -0.40185707
a   3.9231736      Node   157.97980     +0.40476118     +0.91426169
e   0.3780028      Incl.   26.11024     -0.15775028     +0.05134640
P   7.77

・ 光度変化

        m1 = 11.0 + 5 logΔ + 15.0 log r(t - 100)

---------------------------------------------------------------------

軌道要素はM.P.E.C. 2009-X01に掲載されたものです。
光度グラフはComet for Windowsで作成したものです。

---------------------------------------------------------------------

Copyright(C) Seiichi Yoshida (comet@aerith.net). All rights reserved.